Location: Antin
(43.3330°N, 0.2804°E)
Time: 08:29:14
(UTC+00:00)

SME Rocket - Pass Details

Date: 02 June 2022
Orbit: 551 x 2650 km, 99.9° (Epoch: 06 July)

Event Time Altitude Azimuth Distance (km) Brightness Sun altitude
Exits shadow 00:55:01 35° 124° (SE) 1,119 4.1 -23.2°
Maximum altitude 00:56:39 54° 67° (ENE) 913 4.0 -23.1°
Drops below altitude 10° 01:02:22 10° 351° (N) 2,790 7.3 -22.8°
Sets 01:05:26 0° 348° (NNW) 4,049 8.2 -22.6°
